This demonstration page uses our WeatherBlox Daily Observations layout. Learn more.

Left ArrowRight Arrow

Hourly Observations for April 6, 2021

Temp ( °F °C ) Dew Point ( °F °C ) Humidity (%) Winds ( mph kmh ) Pressure ( in mb ) Visibility ( mi km ) Precip ( " mm )
12:53 am 00:53 Clear 52 11.1 43 6.1 72 72 Calm 30.07 1018 10 16 0.00 0.00
1:53 am 01:53 Clear 51 10.6 43 6.1 74 74 Calm 30.07 1018 10 16 0.00 0.00
2:53 am 02:53 Clear 50 10 44 6.7 80 80 Calm 30.07 1018 10 16 0.00 0.00
3:53 am 03:53 Clear 47 8.3 43 6.1 86 86 Calm 30.07 1018 10 16 0.00 0.00
4:53 am 04:53 Clear 46 7.8 43 6.1 89 89 Calm 30.07 1018 10 16 0.00 0.00
5:53 am 05:53 Clear 45 7.2 42 5.6 90 90 Calm 30.09 1019 10 16 0.00 0.00
6:53 am 06:53 Clear 44 6.7 42 5.6 93 93 Calm 30.10 1019 10 16 0.00 0.00
7:53 am 07:53 Sunny 49 9.4 43 6.1 80 80 Calm 30.13 1020 10 16 0.00 0.00
8:53 am 08:53 Sunny 52 11.1 45 7.2 77 77 Calm 30.14 1021 10 16 0.00 0.00
9:53 am 09:53 Sunny 60 15.6 44 6.7 56 56 Calm 30.14 1021 10 16 0.00 0.00
10:53 am 10:53 Sunny 71 21.7 42 5.6 35 35 WNW 5 7 30.15 1021 10 16 0.00 0.00
11:53 am 11:53 Sunny 75 23.9 43 6.1 32 32 NW 5 7 30.14 1021 10 16 0.00 0.00
12:53 pm 12:53 Sunny 76 24.4 39 3.9 26 26 W 6 9 30.11 1020 10 16 0.00 0.00
1:53 pm 13:53 Sunny 77 25 38 3.3 24 24 Calm 30.09 1019 10 16 0.00 0.00
2:53 pm 14:53 Sunny 79 26.1 40 4.4 25 25 NNW 3 6 30.06 1018 10 16 0.00 0.00
3:53 pm 15:53 Sunny 79 26.1 38 3.3 23 23 S 7 11 30.04 1017 10 16 0.00 0.00
4:53 pm 16:53 Sunny 79 26.1 38 3.3 23 23 SSW 6 9 30.01 1016 10 16 0.00 0.00
5:53 pm 17:53 Sunny 79 26.1 37 2.8 22 22 W 7 11 30.01 1016 10 16 0.00 0.00
6:53 pm 18:53 Sunny 79 26.1 37 2.8 22 22 VRB 5 7 30.00 1016 10 16 0.00 0.00
7:53 pm 19:53 Sunny 76 24.4 38 3.3 25 25 Calm 30.01 1016 10 16 0.00 0.00
8:53 pm 20:53 Clear 67 19.4 43 6.1 42 42 NE 5 7 30.02 1017 10 16 0.00 0.00
9:53 pm 21:53 Clear 66 18.9 44 6.7 45 45 S 5 7 30.03 1017 10 16 0.00 0.00
10:53 pm 22:53 Clear 60 15.6 46 7.8 60 60 Calm 30.04 1017 10 16 0.00 0.00
11:53 pm 23:53 Clear 58 14.4 47 8.3 67 67 Calm 30.04 1017 10 16 0.00 0.00

Powered by AerisWeather